Flag for Germany Weather past 2 weeks in Gütersloh, North Rhine-Westphalia, Germany

53 °F

Drizzle. Low clouds.

Feels Like: 53 °F
Forecast: 48 / 59 °F
Wind: 2 mph from West

Location: Bad Lippspringe

Current Time: Oct 9, 2015 at 1:47:43 AM

Latest Report: Oct 9, 2015 at 1:00 AM

Visibility: 1 mi

Pressure: 30.17 "Hg

Humidity: 100%

Dew point: 53 °F

Location of GüterslohLocation

Historic Weather in Gütersloh — Graph


Gütersloh temperature yesterday

Maximum temperature yesterday: 56 °F (at 1:00 AM)
Minimum temperature yesterday: 53 °F (at 11:00 PM)
Average temperature yesterday: 55 °F

Past Weeks' High & Low Weather Summary

High70 °F (Oct 3, 5:00 PM)100% (Sep 25, 7:00 AM)30.66 "Hg (Sep 25, 7:00 AM)
Low37 °F (Oct 2, 8:00 AM)43% (Oct 2, 4:00 PM)29.64 "Hg (Oct 6, 5:00 PM)
Average54 °F81%30.21 "Hg
* Reported Sep 24 1:00 AM — Oct 9 1:00 AM, Gütersloh, Weather by CustomWeather, © 2015

Note: Actual official high and low records may vary slightly from our data, if they occured in-between our weather recording intervals... More about our weather records


Gütersloh weather history for previous 24 hours

Time TempWeatherWind HumidityBarometerVisibility
1:00 AM
Fri, Oct 9
53 °FDrizzle. Low clouds.2 mph100%30.17 "Hg1 mi
11:00 PM
Thu, Oct 8
53 °FDrizzle. Low clouds.2 mph100%30.17 "Hg1 mi
10:00 PM53 °FLight freezing rain. Low clouds.3 mph99%30.16 "Hg1 mi
9:00 PM54 °FDrizzle. Low clouds.3 mph100%30.15 "Hg1 mi
8:00 PM55 °FDrizzle. Low clouds.2 mph99%30.14 "Hg2 mi
7:00 PM55 °FDrizzle. Low clouds.1 mph100%30.14 "Hg1 mi
6:00 PM56 °FLow clouds.2 mph95%30.13 "Hg16 mi
5:00 PM56 °FDrizzle. Low clouds.2 mph97%30.13 "Hg9 mi
4:00 PM56 °FDrizzle. Low clouds.2 mph99%30.12 "Hg3 mi
3:00 PM55 °FDrizzle. Low clouds.2 mph100%30.12 "Hg2 mi
2:00 PM55 °FLow clouds.3 mph95%30.11 "Hg8 mi
1:00 PM55 °FLow clouds.3 mph98%30.11 "Hg5 mi
12:00 PM54 °FLow clouds.3 mph99%30.11 "Hg3 mi
11:00 AM54 °FDrizzle. Low clouds.3 mph99%30.10 "Hg2 mi
10:00 AM54 °FDrizzle. Low clouds.3 mph97%30.08 "Hg4 mi
9:00 AM54 °FDrizzle. Low clouds.3 mph97%30.06 "Hg2 mi
8:00 AM54 °FLow clouds.2 mph99%30.05 "Hg2 mi
7:00 AM55 °FLow clouds.1 mph97%30.03 "Hg6 mi
5:00 AM54 °FLow clouds.1 mph98%30.02 "Hg4 mi
4:00 AM55 °FLow clouds.3 mph98%30.02 "Hg5 mi
3:00 AM55 °FOvercast.5 mph93%30.02 "Hg10 mi
2:00 AM56 °FOvercast.3 mph91%30.01 "Hg8 mi
1:00 AM56 °FOvercast.2 mph90%30.01 "HgN/A
Weather by CustomWeather, © 2015

See weather overviewHow to use our weather pages